User: anonymous   Login
Location: Castelbiague
(43.0361°N, 0.9246°E)
Time: 00:12:02
(UTC+00:00)
Language:

Cosmos 1975 Rocket - Orbit

View from above orbital plane
View from above orbital plane
View from above satellite
View from above satellite

Ground track
Ground track

The orbit data is extracted from the following two-line orbital elements,

1 19574U 88093B   21262.41973480  .00000096  00000-0  86834-5 0  9992
2 19574  82.5311 130.8683 0022425  32.0649 141.2400 14.83385325758909
Epoch (UTC): 19 September 2021 10:04:25
Eccentricity: 0.0022425
inclination: 82.5311°
perigee height: 603 km
apogee height: 634 km
right ascension of ascending node: 130.8683°
argument of perigee: 32.0649°
revolutions per day: 14.83385325
mean anomaly at epoch: 141.2400°
orbit number at epoch: 75890

The dashed part of the orbit path shows where the satellite is in the earth's shadow,  

DLR